Location: Borgo
(42.3939°N, 9.2791°E)
Time: 17:17:37
(UTC+00:00)

Cosmos 2098 Rocket - Pass Details

Date: 24 January 2021
Orbit: 366 x 1182 km, 82.9° (Epoch: 03 March)

Event Time Altitude Azimuth Distance (km) Brightness Sun altitude
Rises 17:43:11 0° 168° (SSE) 3,885 7.2 -14.1°
Reaches altitude 10° 17:45:47 10° 164° (SSE) 2,998 6.5 -14.6°
Maximum altitude 17:52:43 53° 90° (E) 1,420 4.5 -15.9°
Drops below altitude 10° 17:59:51 10° 17° (NNE) 3,083 6.3 -17.2°
Sets 18:02:32 0° 13° (NNE) 4,002 7.0 -17.6°
